Location: Bron
(47.1757°N, 0.1240°W)
Time: 18:37:00
(UTC+00:00)

Daily predictions for brighter satellites

Satellite Brightness Start Highest point End
(mag) Time Altitude Azimuth Time Altitude Azimuth Time Altitude Azimuth
USA 234 4.4 19:52:50 10° NE 19:58:58 44° NNW 20:05:06 10° W
Cosmos 923 Rocket 4.1 19:54:29 10° S 19:59:47 67° ESE 20:05:05 10° NNE
OBJECT-B 1.9 19:57:11 10° S 20:00:17 46° W 20:03:24 10° NNW
BREEZE-M DEB (TANK) 3.5 20:00:55 10° WNW 20:03:50 65° SSW 20:12:05 10° ESE
Cosmos 2219 Rocket 3.6 20:00:16 10° N 20:04:50 25° NE 20:09:22 10° E
Meteor 2-15 4.5 19:58:52 10° N 20:04:58 88° E 20:11:02 10° S
SJ-6B 3.5 20:03:18 10° S 20:06:57 52° W 20:10:40 10° NNW
Resurs 1-3 3.6 20:03:01 10° SSE 20:07:23 84° ENE 20:11:49 10° NNW
Cosmos 2056 Rocket 3.9 20:04:50 10° NNW 20:10:04 52° ENE 20:15:11 10° SE
ATLAS 5 CENTAUR R/B 3.5 20:06:06 10° NNW 20:10:42 30° NE 20:16:02 10° E
USA 186 4.0 20:12:10 10° SSW 20:14:18 20° W 20:16:20 10° NW
SPOT 1/Viking Rocket 4.1 20:14:46 10° SE 20:19:40 43° ENE 20:24:36 10° N
USA 245 4.5 20:16:53 10° SE 20:20:23 27° ENE 20:23:22 10° NNE
Cosmos 1092 Rocket 4.0 20:15:09 10° S 20:21:25 80° E 20:27:48 10° N
NOSS 2-1 (E) 2.8 20:18:20 10° SSW 20:21:34 57° SE 20:24:54 10° NE
Cosmos 2026 Rocket 4.0 20:18:51 10° S 20:25:06 70° E 20:31:17 10° NNE
SL-16 R/B 2.8 20:21:07 10° NW 20:26:40 57° WSW 20:32:12 10° S
IGS 5A 3.4 20:23:55 10° SSE 20:28:03 81° ENE 20:32:13 10° N
GP-B 3.5 20:24:55 10° NNE 20:29:13 46° E 20:33:28 10° SSE
Meteor 1-26 Rocket 4.4 20:24:55 10° NNW 20:30:49 80° W 20:36:28 10° S
Cosmos 1151 Rocket 3.0 20:27:14 10° N 20:31:36 70° E 20:35:59 10° SSE
Cosmos 1680 Rocket 3.6 20:26:56 10° SSW 20:32:13 87° WNW 20:37:30 10° NNE
Cosmos 1371 Rocket 4.1 20:27:00 10° NNW 20:32:25 86° ENE 20:37:42 10° SSE
NOSS 3-1 (C) 4.2 20:25:55 10° NW 20:33:14 70° NE 20:40:55 14° SE
Cosmos 2112 Rocket 4.0 20:28:45 10° SSW 20:34:02 84° ESE 20:39:20 10° NNE
Lacrosse 5 3.4 20:33:36 14° SE 20:34:06 14° ESE 20:36:38 10° E
Cosmos 1271 Rocket 3.6 20:31:43 10° NNW 20:35:37 51° W 20:39:30 10° S
Okean 3 Rocket 3.7 20:32:24 10° S 20:36:50 62° E 20:41:20 10° NNE
ERS-2 2.1 20:37:54 10° NNE 20:41:34 83° WNW 20:45:11 10° SSW
MetOp-B 4.2 20:36:35 10° SSE 20:41:50 74° ENE 20:47:13 10° N
Cosmos 2237 4.5 20:39:14 10° NNW 20:44:55 69° WSW 20:50:21 11° SSE
COSMOS 2487 3.7 20:45:40 20° ESE 20:46:31 22° ESE 20:49:12 10° NE
Cosmos 1515 Rocket 4.0 20:44:37 10° N 20:48:53 45° ENE 20:51:44 19° SE
COSMOS 2428 3.5 20:44:29 10° NNW 20:49:50 40° NE 20:53:52 17° ESE
GEOS 3 Rocket 3.9 20:45:21 10° NE 20:50:34 72° NW 20:55:40 10° SW
USA 229 DEB 4.2 20:44:14 10° NW 20:51:25 59° NE 20:57:36 16° ESE
USA 229 4.2 20:44:20 10° NW 20:51:30 59° NE 20:57:42 16° ESE
COSMOS 2455 3.1 20:46:42 10° S 20:52:23 47° ESE 20:58:07 10° NE
Cosmos 292 Rocket 3.7 20:51:43 10° NNW 20:56:32 81° ENE 20:59:58 19° SSE
Terra 2.9 20:54:30 17° ESE 20:57:13 30° ENE 21:01:20 10° N
Cosmos 1328 Rocket 3.6 20:53:30 10° N 20:57:57 83° W 21:01:43 14° S
Ariane Rocket 4.2 20:53:13 10° SSW 20:57:57 40° W 21:02:43 10° NNW
Cosmos 1809 Rocket 4.4 20:52:15 10° S 20:58:23 84° E 21:04:32 10° N
Cosmos 2360 Rocket 2.4 20:54:22 10° NNW 20:59:59 67° WSW 21:04:37 15° SSE
Cosmos 1766 Rocket 3.9 20:59:05 10° SSW 21:03:25 68° W 21:07:47 10° N
SPOT 3 Rocket 3.9 20:59:52 10° S 21:04:59 64° WSW 21:10:11 10° NNW
Cosmos 1174 3.6 21:02:36 10° NW 21:05:31 50° WSW 21:06:57 26° S
NOSS 2-1 (C) 4.2 21:02:40 10° WSW 21:05:48 41° NW 21:09:04 10° NNE
Resurs 01 Rocket 2.8 21:05:50 10° SSW 21:10:00 40° W 21:14:14 10° NNW
NOSS 3-1 (A) 4.2 21:04:41 10° NW 21:12:05 73° NE 21:18:16 21° SE
Meteor 2-6 Rocket 4.2 21:06:46 10° NNW 21:12:10 78° W 21:16:31 16° S
Cosmos 2266 Rocket 4.2 21:09:42 18° SSE 21:14:11 53° E 21:20:16 10° NNE
Cosmos 1420 Rocket 4.2 21:10:07 10° NNW 21:15:25 69° WSW 21:19:07 20° S
Cosmos 1812 3.3 21:12:31 10° NNW 21:16:18 54° W 21:19:06 17° SSW
Cosmos 1553 Rocket 4.1 21:11:11 10° NNW 21:17:16 74° W 21:22:39 14° S
Cosmos 1862 3.5 21:16:10 11° SSW 21:19:57 70° W 21:23:56 10° N
Gblst 52 Del rocket 4.4 21:14:32 10° WNW 21:20:29 86° SSW 21:24:54 23° ESE
Meteor 2-21 Rocket 4.4 21:16:33 10° S 21:22:42 83° E 21:28:53 10° N
SL-27 R/B 4.1 21:19:28 10° SW 21:22:49 37° WNW 21:26:13 10° N
ERS-1 Rocket 3.0 21:20:14 26° SSE 21:23:03 69° ENE 21:28:04 10° N
Cosmos 2228 Rocket 3.6 21:21:01 10° N 21:25:17 44° ENE 21:26:53 31° SE
Cosmos 2285 Rocket 4.0 21:23:12 10° NNW 21:29:31 71° ENE 21:33:03 28° SE
Cosmos 2297 Rocket 3.7 21:31:26 18° E 21:31:26 18° E 21:35:04 10° ENE
Cosmos 1805 Rocket 4.2 21:31:35 33° SE 21:32:39 39° E 21:36:46 10° NNE
BREEZE-M DEB (TANK) 2.3 21:27:01 10° WNW 21:33:30 83° NNE 21:34:36 38° E
SPOT 5 2.6 21:31:58 32° SSE 21:33:58 85° ENE 21:38:31 10° NNW
ARIANE 5 R/B 2.6 21:31:52 29° S 21:34:08 79° WSW 21:38:34 10° NNW
Cosmos 2315 Rocket 4.2 21:28:01 10° N 21:34:18 59° ENE 21:37:37 28° SE
NOSS 0 Rocket 4.4 21:28:27 10° NNW 21:34:34 52° NE 21:37:53 26° ESE
Cosmos 2333 Rocket 2.3 21:29:49 10° NNW 21:35:27 72° WSW 21:38:33 28° SSE
Cosmos 2322 Rocket 4.2 21:32:33 10° NW 21:36:41 21° W 21:40:47 10° SSW
Cosmos 2237 Rocket 3.2 21:32:27 10° NNW 21:37:40 36° NE 21:40:34 22° ESE
Cosmos 2322 3.8 21:32:42 10° NNW 21:38:26 72° WSW 21:41:30 28° S
Cosmos 1452 Rocket 3.5 21:36:43 10° NNW 21:41:59 79° WSW 21:44:29 32° SSE
Cosmos 1500 Rocket 3.5 21:40:12 29° S 21:42:27 87° E 21:46:56 10° N
Cosmos 2227 Rocket 3.8 21:44:49 17° E 21:44:49 17° E 21:47:55 10° ENE
Cosmos 2219 Rocket 2.3 21:43:44 10° NNW 21:49:18 68° WSW 21:51:54 32° S
S3M 4.4 21:45:31 10° NNW 21:51:50 62° W 21:56:13 21° SSW
Sich 1 3.2 21:53:27 46° ESE 21:54:05 50° E 21:58:15 10° NNE
ATLAS 5 CENTAUR R/B 2.3 21:50:16 10° NW 21:55:50 78° SW 21:58:39 35° SSE
Cosmos 1515 4.0 21:53:35 10° N 21:57:15 46° ENE 21:57:27 46° E
Spot 2 Rocket 4.4 21:54:15 21° SSW 21:57:19 43° W 22:02:12 10° NNW
Cosmos 1331 Rocket 4.0 21:52:38 10° NNW 21:57:52 70° ENE 21:59:36 42° SE
Meteor 1-27 Rocket 3.9 21:52:45 10° NNW 21:58:26 71° W 22:01:24 30° S
Cosmos 1110 Rocket 4.0 21:53:57 10° NNW 21:59:19 79° ENE 22:01:08 42° SSE
Cosmos 1743 Rocket 4.1 22:02:46 26° SSW 22:05:08 57° WNW 22:09:30 10° N
SL-16 R/B 3.8 22:05:16 10° N 22:09:58 26° NE 22:12:56 17° E
Cosmos 1633 Rocket 3.8 22:10:51 36° E 22:10:51 36° E 22:14:43 10° NNE
Cosmos 494 Rocket 3.9 22:11:18 31° SSW 22:13:46 87° WNW 22:18:57 10° NNE
Lacrosse 5 1.7 22:12:21 17° SW 22:16:16 70° SE 22:21:20 10° NE
IRIDIUM 104 4.3 22:12:22 10° N 22:17:37 77° W 22:19:24 42° SSW
APEX 4.4 22:17:43 26° SSW 22:21:16 86° ESE 22:28:06 10° NNE
Cosmos 1666 Rocket 3.7 22:21:09 56° ESE 22:21:20 57° E 22:25:44 10° NNE
Cosmos 1602 3.6 22:22:55 81° ENE 22:22:55 81° ENE 22:26:42 10° N
Nadezhda 2 Rocket 4.5 22:23:47 41° S 22:26:10 75° E 22:32:36 10° NNE
Cosmos 1244 Rocket 4.4 22:30:49 45° S 22:32:52 78° E 22:39:07 10° N
COSMOS 2428 3.6 22:28:53 10° NW 22:34:05 38° WSW 22:35:52 30° SW
Terra 2.9 22:33:24 29° SW 22:34:51 36° W 22:39:16 10° NNW
CZ-4C R/B 3.8 22:28:36 10° NNW 22:35:07 42° NE 22:41:11 16° ESE
Meteor 1-25 Rocket 4.2 22:33:39 40° SSW 22:35:43 77° WNW 22:41:18 10° N
COBE Rocket 3.7 22:36:50 63° ESE 22:37:23 71° ENE 22:42:08 10° N
COSMOS 2455 4.2 22:32:50 10° WSW 22:38:26 39° NW 22:44:05 10° NNE
Cosmos 2084 Rocket 4.0 22:35:02 10° NW 22:38:56 46° WSW 22:38:56 46° WSW
Meteor 2-4 Rocket 4.0 22:33:33 10° N 22:39:25 59° ENE 22:40:46 47° SE
CZ-3B R/B 2.0 22:31:01 10° WNW 22:39:30 82° SW 22:39:48 74° SSE
Cosmos 1862 Rocket 3.4 22:40:59 10° N 22:45:19 75° ENE 22:45:19 75° ENE
Meteor 1-18 Rocket 4.2 22:42:11 10° NNW 22:48:00 85° W 22:49:18 56° S
USA 267 3.8 22:42:49 10° ENE 22:48:10 36° ESE 22:48:10 36° ESE
Cosmos 2219 3.2 22:48:17 56° SE 22:48:53 59° ESE 22:54:33 10° NNE
Meteor 1-5 Rocket 4.5 22:49:36 49° ESE 22:50:25 53° E 22:56:11 10° NNE
H-2A R/B 4.4 22:48:32 10° N 22:52:34 45° WNW 22:53:30 38° WSW
Spot 4 3.7 22:52:09 68° ESE 22:52:37 74° ENE 22:57:28 10° N
Okean 1 3.8 22:49:13 10° NNW 22:52:58 54° W 22:52:58 54° W
Cosmos 1707 Rocket 4.0 22:49:15 10° NNW 22:53:30 50° W 22:53:48 49° WSW
Cosmos 1302 Rocket 3.9 22:51:40 10° NNW 22:56:54 74° WSW 22:57:32 65° SSW
Cosmos 1500 3.6 22:59:15 60° NW 22:59:15 60° NW 23:02:40 10° N
Meteor 1-19 Rocket 4.5 22:54:19 10° NNW 22:59:44 57° W 23:00:52 47° SW
Cosmos 1980 3.9 22:54:58 10° NNW 23:00:32 58° WSW 23:01:24 52° SSW
Cosmos 1703 Rocket 4.4 22:57:21 10° N 23:01:20 39° ENE 23:01:20 39° ENE
SL-08 R/B 4.4 23:00:49 52° SSW 23:02:29 87° W 23:08:40 10° N
Cosmos 909 Rocket 4.3 23:02:47 51° SSE 23:04:10 60° ESE 23:11:46 10° NE
Cosmos 1378 4.5 23:01:18 10° N 23:03:58 33° NE 23:03:58 33° NE
Okean 1-7 3.7 23:05:47 10° N 23:09:33 45° ENE 23:09:33 45° ENE
Cosmos 1269 Rocket 4.0 23:10:35 60° SW 23:11:32 78° WNW 23:16:51 10° NNE
Cosmos 2297 Rocket 2.2 23:13:12 50° SW 23:14:43 77° WNW 23:20:25 10° NNE
Meteor 2-17 Rocket 4.3 23:15:38 60° SSE 23:16:35 70° E 23:22:37 10° NNE
Cosmos 2237 Rocket 2.8 23:16:29 10° NW 23:21:49 43° WSW 23:22:23 42° WSW
ALOS 2 2.6 23:23:09 77° N 23:23:09 77° N 23:27:16 10° NNW
USA 234 3.7 23:18:04 15° E 23:23:31 59° NNE 23:29:56 10° NW
Cosmos 1461 4.3 23:27:19 32° ENE 23:27:19 32° ENE 23:29:59 10° NE
Cosmos 1709 Rocket 4.1 23:26:19 55° SE 23:27:24 63° E 23:33:42 10° NNE
Cosmos 2227 Rocket 2.2 23:26:37 59° SW 23:27:42 80° WNW 23:33:25 10° NNE
Meteor 1-13 Rocket 4.2 23:22:23 10° N 23:28:07 70° ENE 23:28:50 63° ESE
Cosmos 2263 Rocket 3.6 23:33:28 24° E 23:33:28 24° E 23:37:27 10° NE
Cosmos 1745 Rocket 4.1 23:35:14 52° SW 23:36:45 71° W 23:43:06 10° N
Cosmos 1536 3.8 23:40:44 42° NE 23:40:44 42° NE 23:43:42 10° NNE
ATLAS 5 CENTAUR R/B 4.2 23:36:23 10° WNW 23:40:01 17° WSW 23:40:09 17° WSW
Cosmos 1241 Rocket 4.4 23:44:34 60° SSW 23:45:51 80° ESE 23:52:22 10° NE
Okean 3 3.9 23:42:08 10° N 23:45:46 57° NNE 23:45:46 57° NNE
Cosmos 1869 Rocket 4.1 23:47:06 54° ENE 23:47:06 54° ENE 23:50:52 10° NNE
Nadezhda 1 Rocket 4.5 23:43:49 10° NNW 23:49:58 50° W 23:51:16 44° SW
Cosmos 1666 4.2 23:50:39 32° WNW 23:50:39 32° WNW 23:53:40 10° N
Cosmos 44 3.3 23:45:56 10° NW 23:51:13 78° NE 23:51:25 76° E
Thor Agena Rocket 3.9 23:47:52 10° NNE 23:52:34 48° E 23:52:34 48° E
